Find Starlink 31478

NORAD ID: 59188 Int'l Des: 2024-045 Owner: SPXS Country: US Constellation: starlink operational
LEOCIRCULAR

Current View

Loading 3D Globe...

About Starlink 31478

Starlink 31478 (NORAD 59188) is a starlink constellation satellite (v2 mini) launched Mar 11, 2024 by SPXS of US. It operates in LEO, CIRCULAR orbit with a mass of 730.00 kg.

About Starlink 31478

Description loading...

Upcoming Passes

Passes for default location (London). Set your location on the main map for personalized predictions.

Altitude History

Loading altitude history...

Two-Line Element Set

1 59188U 24045L 26173.18815218 -.00006079 00000-0 -21158-3 0 9993
2 59188 43.0001 222.3376 0001043 262.6901 97.3832 15.27577276129148
Epoch: Jun 22, 2026 • Age: 27 hours

Current Status

Altitude 486.8 km
Velocity 7.63 km/s
Sub-Earth Point 42.38°N, 66.63°W
Launch Date Mar 11, 2024
Age 2.2 years
Type internet

Technical Details

Classification Payload
Mass 730.00 kg
Dry Mass 700.00 kg
Total Mass 730.00 kg
Length 0.30 m
Diameter 4.10 m
Span 29.00 m
Shape Box + pan
Manufacturer SPXS
Bus Type Starlink V2M
Phase Status In Orbit
Owner/State SPXS/US

Most Searched